Weather History for Milton, FL

Change the Weather History Date:

Wednesday, November 7, 2012

  Actual Average (KNSE) Record (KNSE)
Temperature  
Mean Temperature 54 °F -  
Max Temperature 66 °F 69 °F 84 °F (2005)
Min Temperature 43 °F 51 °F 37 °F (2007)
Degree Days  
Heating Degree Days 10    
Growing Degree Days 4 (Base 50)    
Moisture  
Dew Point 41 °F    
Average Humidity 67    
Maximum Humidity 93    
Minimum Humidity 37    
Precipitation  
Precipitation 0.00 in - - ()
Sea Level Pressure  
Sea Level Pressure 29.99 in    
Wind  
Wind Speed 6 mph (NW)    
Max Wind Speed 15 mph    
Max Gust Speed 20 mph    
Visibility 10 miles    
Events      
Averages and records for this station are not official NWS values.
T = Trace of Precipitation, MM = Missing Value Source: NWS Daily Summary

Daily Weather History Graph

Daily Weather History Graph

Search for Another Location

Airport:

Trip Planner

Search our weather history database for the weather conditions in past years. The results will help you decide how hot, cold, wet, or windy it might be!

Date:

Astronomy

Nov. 07, 2012 Rise Set
Actual Time 6:08 AM CST 4:55 PM CST
Civil Twilight 5:42 AM CST 5:20 PM CST
Nautical Twilight 5:14 AM CST 5:49 PM CST
Astronomical Twilight 4:45 AM CST 6:17 PM CST
Moon No Moon Rise 12:38 PM CST (11/7)
Length of Visible Light 11h 37m
Length of Day
10h 46m
Last Quarter, 43% of the Moon is Illuminated
Nov 7
Last Quarter
Nov 13
New
Nov 20
First Quarter
Nov 28
Full
Dec 6
Last Quarter

Hourly Weather History & Observations

Time (CST) Temp. Windchill Dew Point Humidity Pressure Visibility Wind Dir Wind Speed Gust Speed Precip Events Conditions
12:56 AM 44.1 °F 41.5 °F 42.1 °F 93% 29.97 in 10.0 mi WNW 4.6 mph - N/A   Clear
1:56 AM 44.1 °F 42.5 °F 42.1 °F 93% 29.98 in 10.0 mi WNW 3.5 mph - N/A   Clear
2:56 AM 44.1 °F 41.5 °F 42.1 °F 93% 29.97 in 10.0 mi NW 4.6 mph - N/A   Clear
3:56 AM 44.1 °F 41.5 °F 42.1 °F 93% 29.97 in 10.0 mi WNW 4.6 mph - N/A   Clear
4:56 AM 43.0 °F 39.5 °F 41.0 °F 93% 29.99 in 8.0 mi West 5.8 mph - N/A   Clear
5:56 AM 43.0 °F 40.3 °F 41.0 °F 93% 29.99 in 7.0 mi WNW 4.6 mph - N/A   Clear
6:56 AM 44.1 °F 41.5 °F 42.1 °F 93% 30.00 in 9.0 mi WNW 4.6 mph - N/A   Clear
7:56 AM 48.9 °F - 46.0 °F 90% 30.02 in 10.0 mi NW 6.9 mph - N/A   Clear
8:56 AM 54.0 °F - 46.9 °F 77% 30.03 in 10.0 mi NW 4.6 mph - N/A   Overcast
9:56 AM 59.0 °F - 45.0 °F 60% 30.01 in 10.0 mi NNW 9.2 mph - N/A   Clear
10:56 AM 61.0 °F - 45.0 °F 56% 29.99 in 10.0 mi NNW 9.2 mph - N/A   Mostly Cloudy
11:56 AM 62.1 °F - 42.1 °F 48% 29.95 in 10.0 mi Variable 5.8 mph - N/A   Mostly Cloudy
12:56 PM 63.0 °F - 41.0 °F 45% 29.93 in 10.0 mi NW 6.9 mph 19.6 mph N/A   Scattered Clouds
1:56 PM 66.0 °F - 39.0 °F 37% 29.91 in 10.0 mi North 15.0 mph - N/A   Scattered Clouds
2:56 PM 62.1 °F - 39.0 °F 43% 29.92 in 10.0 mi NW 9.2 mph - N/A   Clear
3:56 PM 63.0 °F - 37.9 °F 40% 29.93 in 10.0 mi NNW 11.5 mph 18.4 mph N/A   Partly Cloudy
4:56 PM 57.9 °F - 39.0 °F 49% 29.95 in 10.0 mi NNW 8.1 mph - N/A   Clear
5:56 PM 53.1 °F - 41.0 °F 64% 29.98 in 10.0 mi WNW 3.5 mph - N/A   Scattered Clouds
6:56 PM 55.0 °F - 39.9 °F 57% 30.00 in 10.0 mi NNW 5.8 mph - N/A   Mostly Cloudy
7:56 PM 57.0 °F - 37.9 °F 49% 30.03 in 10.0 mi North 10.4 mph - N/A   Overcast
8:56 PM 53.1 °F - 37.0 °F 55% 30.06 in 10.0 mi North 8.1 mph - N/A   Partly Cloudy
9:56 PM 51.1 °F - 36.0 °F 56% 30.08 in 10.0 mi North 8.1 mph - N/A   Clear
10:56 PM 46.9 °F - 36.0 °F 66% 30.09 in 10.0 mi NNW 4.6 mph - N/A   Clear
11:56 PM 46.9 °F - 36.0 °F 66% 30.09 in 10.0 mi North 9.2 mph - N/A   Clear